| time (UTC) | temp F | wind direction | speed MPH | gust MPH | rain 1hr in | rain 24hr in | rain mn in | humidity % | barometer mb |
| 20260507204600 | 52 | 178 | 0.0 | 4.0 | 0.01 | 1.09 | 0.44 | 68 | 999.6 |
| 20260507203102 | 52 | 178 | 0.0 | 6.0 | 0.00 | 1.08 | 0.43 | 68 | 999.5 |
| 20260507200058 | 54 | 207 | 0.0 | 3.0 | 0.00 | 1.21 | 0.43 | 66 | 999.5 |
| 20260507194619 | 51 | 189 | 0.0 | 6.0 | 0.00 | 1.21 | 0.43 | 72 | 999.7 |
| 20260507193057 | 49 | 185 | 1.0 | 7.0 | 0.00 | 1.21 | 0.43 | 74 | 1000.0 |
| 20260507191556 | 51 | 190 | 3.0 | 10.0 | 0.00 | 1.21 | 0.43 | 67 | 1000.0 |
| 20260507190057 | 53 | 186 | 1.0 | 6.0 | 0.00 | 1.26 | 0.43 | 56 | 999.7 |
| 20260507184554 | 53 | 181 | 0.0 | 3.0 | 0.00 | 1.26 | 0.43 | 56 | 999.6 |
| 20260507183055 | 54 | 211 | 0.0 | 5.0 | 0.00 | 1.26 | 0.43 | 51 | 999.9 |
| 20260507181557 | 56 | 246 | 1.0 | 8.0 | 0.00 | 1.26 | 0.43 | 51 | 999.9 |
| 20260507180051 | 57 | 244 | 0.0 | 9.0 | 0.00 | 1.32 | 0.43 | 51 | 1000.0 |
| 20260507174557 | 56 | 186 | 0.0 | 7.0 | 0.00 | 1.32 | 0.43 | 56 | 1000.0 |
| 20260507173119 | 55 | 190 | 1.0 | 8.0 | 0.00 | 1.32 | 0.43 | 55 | 1000.1 |
| 20260507171554 | 56 | 312 | 1.0 | 7.0 | 0.00 | 1.32 | 0.43 | 52 | 1000.0 |
| 20260507170105 | 58 | 240 | 0.0 | 0.0 | 0.00 | 1.33 | 0.43 | 52 | 1000.1 |
| 20260507164553 | 56 | 253 | 0.0 | 0.0 | 0.00 | 1.33 | 0.43 | 50 | 1000.3 |
| 20260507163042 | 56 | 292 | 0.0 | 0.0 | 0.00 | 1.33 | 0.43 | 57 | 1000.5 |
| 20260507161557 | 55 | 239 | 0.0 | 0.0 | 0.00 | 1.33 | 0.43 | 60 | 1000.6 |
| 20260507160041 | 54 | 236 | 0.0 | 0.0 | 0.00 | 1.37 | 0.43 | 68 | 1001.0 |
| 20260507154541 | 53 | 193 | 0.0 | 0.0 | 0.00 | 1.37 | 0.43 | 72 | 1001.0 |
| 20260507153038 | 53 | 258 | 0.0 | 0.0 | 0.00 | 1.37 | 0.43 | 70 | 1001.2 |
| 20260507151533 | 52 | 250 | 0.0 | 0.0 | 0.00 | 1.37 | 0.43 | 71 | 1001.3 |
| 20260507150028 | 51 | 290 | 0.0 | 0.0 | 0.00 | 1.37 | 0.43 | 75 | 1001.4 |
| 20260507144531 | 50 | 267 | 0.0 | 0.0 | 0.00 | 1.37 | 0.43 | 76 | 1001.5 |
| 20260507143025 | 49 | 347 | 0.0 | 0.0 | 0.00 | 1.37 | 0.43 | 77 | 1001.6 |
| 20260507131506 | 46 | 287 | 0.0 | 0.0 | 0.00 | 1.37 | 0.43 | 83 | 1001.7 |
| 20260507130004 | 46 | 277 | 0.0 | 0.0 | 0.00 | 1.37 | 0.43 | 84 | 1002.1 |
| 20260507124508 | 45 | 281 | 0.0 | 1.0 | 0.00 | 1.37 | 0.43 | 85 | 1001.9 |
| 20260507123004 | 45 | 255 | 0.0 | 6.0 | 0.00 | 1.37 | 0.43 | 86 | 1001.9 |
| 20260507121501 | 44 | 255 | 0.0 | 0.0 | 0.00 | 1.37 | 0.43 | 86 | 1001.9 |
| 20260507120105 | 44 | 275 | 0.0 | 0.0 | 0.00 | 1.38 | 0.43 | 87 | 1001.9 |
| 20260507114615 | 44 | 285 | 0.0 | 0.0 | 0.00 | 1.38 | 0.43 | 87 | 1001.8 |
| 20260507113059 | 44 | 223 | 0.0 | 0.0 | 0.00 | 1.38 | 0.43 | 87 | 1001.9 |
| 20260507111558 | 44 | 252 | 1.0 | 7.0 | 0.00 | 1.38 | 0.43 | 87 | 1001.8 |
| 20260507110104 | 43 | 290 | 3.0 | 10.0 | 0.00 | 1.43 | 0.43 | 87 | 1001.3 |
| 20260507104556 | 43 | 282 | 4.0 | 9.0 | 0.01 | 1.43 | 0.43 | 87 | 1001.8 |
| 20260507103055 | 42 | 296 | 5.0 | 9.0 | 0.02 | 1.43 | 0.43 | 87 | 1002.0 |
| 20260507101601 | 42 | 302 | 4.0 | 9.0 | 0.02 | 1.43 | 0.43 | 87 | 1001.7 |
| 20260507100053 | 42 | 360 | 2.0 | 8.0 | 0.03 | 1.49 | 0.43 | 87 | 1001.5 |
| 20260507094556 | 42 | 271 | 2.0 | 6.0 | 0.03 | 1.48 | 0.42 | 87 | 1001.2 |
| 20260507093051 | 42 | 281 | 2.0 | 9.0 | 0.02 | 1.47 | 0.41 | 87 | 1001.1 |
| 20260507091551 | 42 | 282 | 4.0 | 8.0 | 0.03 | 1.47 | 0.41 | 87 | 1001.2 |
| 20260507090053 | 43 | 321 | 3.0 | 8.0 | 0.02 | 1.51 | 0.40 | 87 | 1001.2 |
| 20260507084548 | 43 | 279 | 6.0 | 12.0 | 0.01 | 1.50 | 0.39 | 87 | 1001.1 |
| 20260507083045 | 43 | 277 | 5.0 | 11.0 | 0.01 | 1.50 | 0.39 | 87 | 1001.0 |
| 20260507081546 | 44 | 254 | 5.0 | 10.0 | 0.01 | 1.49 | 0.38 | 87 | 1000.9 |
| 20260507080041 | 44 | 300 | 4.0 | 9.0 | 0.01 | 1.62 | 0.38 | 87 | 1000.6 |
| 20260507074539 | 44 | 284 | 2.0 | 8.0 | 0.02 | 1.62 | 0.38 | 87 | 1000.8 |
| 20260507073038 | 44 | 282 | 4.0 | 8.0 | 0.04 | 1.62 | 0.38 | 87 | 1000.6 |
| 20260507071538 | 44 | 303 | 3.0 | 10.0 | 0.04 | 1.61 | 0.37 | 87 | 1000.5 |
| 20260507070039 | 44 | 272 | 2.0 | 8.0 | 0.10 | 1.61 | 0.36 | 87 | 1000.6 |
| 20260507064541 | 45 | 322 | 3.0 | 7.0 | 0.14 | 1.60 | 0.35 | 87 | 1000.9 |
| 20260507063030 | 45 | 246 | 3.0 | 7.0 | 0.17 | 1.59 | 0.34 | 87 | 1000.8 |
| 20260507061533 | 45 | 281 | 2.0 | 8.0 | 0.18 | 1.57 | 0.32 | 87 | 1000.8 |
| 20260507060031 | 45 | 262 | 2.0 | 7.0 | 0.15 | 1.51 | 0.26 | 87 | 1001.1 |
| 20260507054523 | 45 | 275 | 2.0 | 6.0 | 0.14 | 1.46 | 0.21 | 87 | 1001.0 |
| 20260507053026 | 46 | 277 | 1.0 | 9.0 | 0.12 | 1.42 | 0.17 | 87 | 1001.7 |
| 20260507051520 | 46 | 274 | 4.0 | 10.0 | 0.11 | 1.39 | 0.14 | 87 | 1001.5 |
| 20260507050020 | 46 | 324 | 4.0 | 10.0 | 0.12 | 1.36 | 0.11 | 87 | 1001.3 |
| 20260507044514 | 46 | 273 | 5.0 | 11.0 | 0.12 | 1.32 | 0.07 | 87 | 1001.2 |
| 20260507043013 | 46 | 339 | 0.0 | 0.0 | 0.13 | 1.29 | 0.04 | 87 | 1001.0 |
| 20260507041511 | 46 | 309 | 0.0 | 0.0 | 0.14 | 1.28 | 0.03 | 87 | 1000.9 |
| 20260507040010 | 47 | 305 | 0.0 | 0.0 | 0.11 | 1.24 | 1.24 | 87 | 1001.1 |
| 20260507034510 | 47 | 305 | 0.0 | 0.0 | 0.07 | 1.20 | 1.20 | 87 | 1001.4 |
| 20260507033007 | 47 | 11 | 0.0 | 0.0 | 0.04 | 1.15 | 1.15 | 87 | 1001.4 |
| 20260507031607 | 47 | 71 | 0.0 | 0.0 | 0.04 | 1.13 | 1.13 | 87 | 1001.3 |
| 20260507030004 | 47 | 22 | 0.0 | 0.0 | 0.05 | 1.12 | 1.12 | 87 | 1001.6 |
| 20260507024605 | 47 | 304 | 0.0 | 0.0 | 0.07 | 1.12 | 1.12 | 87 | 1002.0 |
| 20260507023058 | 47 | 292 | 0.0 | 0.0 | 0.07 | 1.12 | 1.12 | 87 | 1002.3 |
| 20260507021603 | 47 | 306 | 0.0 | 0.0 | 0.05 | 1.10 | 1.10 | 87 | 1002.7 |
| 20260507020054 | 47 | 314 | 0.0 | 0.0 | 0.03 | 1.08 | 1.08 | 87 | 1002.8 |
| 20260507014555 | 47 | 331 | 0.0 | 0.0 | 0.03 | 1.06 | 1.06 | 87 | 1002.9 |
| 20260507013111 | 47 | 271 | 0.0 | 0.0 | 0.04 | 1.05 | 1.05 | 87 | 1003.2 |
| 20260507011553 | 47 | 298 | 0.0 | 0.0 | 0.05 | 1.05 | 1.05 | 87 | 1003.0 |
| 20260507010054 | 47 | 270 | 0.0 | 0.0 | 0.08 | 1.07 | 1.05 | 87 | 1003.1 |
| 20260507004554 | 47 | 105 | 0.0 | 0.0 | 0.08 | 1.05 | 1.03 | 87 | 1003.3 |
| 20260507003051 | 47 | 105 | 0.0 | 0.0 | 0.09 | 1.03 | 1.01 | 86 | 1003.3 |
| 20260507001608 | 47 | 105 | 0.0 | 0.0 | 0.09 | 1.01 | 0.99 | 86 | 1003.2 |
| 20260507000051 | 47 | 105 | 0.0 | 0.0 | 0.10 | 1.04 | 0.97 | 86 | 1003.2 |
| 20260506234558 | 47 | 105 | 0.0 | 0.0 | 0.09 | 1.01 | 0.94 | 86 | 1003.2 |
| 20260506233052 | 47 | 35 | 0.0 | 0.0 | 0.08 | 0.99 | 0.92 | 86 | 1003.2 |
| 20260506231552 | 47 | 289 | 0.0 | 0.0 | 0.08 | 0.97 | 0.90 | 86 | 1003.8 |
| 20260506230048 | 47 | 65 | 0.0 | 0.0 | 0.08 | 1.02 | 0.87 | 86 | 1003.5 |
| 20260506224604 | 47 | 331 | 0.0 | 0.0 | 0.09 | 1.00 | 0.85 | 86 | 1003.7 |
| 20260506223049 | 47 | 310 | 0.0 | 0.0 | 0.12 | 0.99 | 0.84 | 86 | 1003.7 |
| 20260506221546 | 47 | 327 | 0.0 | 0.0 | 0.11 | 0.97 | 0.82 | 86 | 1003.6 |
| 20260506220101 | 47 | 327 | 0.0 | 0.0 | 0.10 | 1.06 | 0.79 | 86 | 1003.7 |
| 20260506214544 | 48 | 275 | 0.0 | 0.0 | 0.07 | 1.02 | 0.75 | 86 | 1004.0 |
| 20260506213043 | 48 | 306 | 0.0 | 0.0 | 0.05 | 0.99 | 0.72 | 86 | 1003.9 |
| 20260506211551 | 48 | 306 | 0.0 | 0.0 | 0.08 | 0.98 | 0.71 | 86 | 1003.9 |
| 20260506210041 | 48 | 79 | 0.0 | 0.0 | 0.10 | 0.96 | 0.69 | 86 | 1003.7 |